This is the latest recevied weather packets stored in our database for station/object SR6WVX. If no packets are shown the sender has not sent any weather packets the latest 10 day(s).
| Time | Temp. | Humidity | Pressure | Rain* | Wind** | Luminosity | Snow |
|---|---|---|---|---|---|---|---|
| 1777478095 | 11.67° C | 30% | 1024.4 hPa | 0 mm | - | - | - |
| 1777477794 | 10.56° C | 32% | 1024.3 hPa | 0 mm | - | - | - |
| 1777477494 | 10.56° C | 30% | 1024.3 hPa | 0 mm | - | - | - |
| 1777477194 | 12.22° C | 29% | 1024.1 hPa | 0 mm | - | - | - |
| 1777476894 | 13.33° C | 28% | 1024.2 hPa | 0 mm | - | - | - |
| 1777476593 | 13.33° C | 28% | 1024.1 hPa | 0 mm | - | - | - |
| 1777476293 | 12.78° C | 29% | 1024.1 hPa | 0 mm | - | - | - |
| 1777475993 | 11.11° C | 30% | 1024.2 hPa | 0 mm | - | - | - |
| 1777475693 | 10.56° C | 31% | 1024.3 hPa | 0 mm | - | - | - |
| 1777475392 | 11.67° C | 29% | 1024.3 hPa | 0 mm | - | - | - |
| 1777475092 | 11.67° C | 30% | 1024.5 hPa | 0 mm | - | - | - |
| 1777474792 | 11.11° C | 31% | 1024.4 hPa | 0 mm | - | - | - |
| 1777474492 | 11.11° C | 29% | 1024.5 hPa | 0 mm | - | - | - |
| 1777474191 | 11.67° C | 28% | 1024.4 hPa | 0 mm | - | - | - |
| 1777473891 | 12.78° C | 26% | 1024.3 hPa | 0 mm | - | - | - |
| 1777473591 | 12.22° C | 28% | 1024.3 hPa | 0 mm | - | - | - |
| 1777473291 | 12.78° C | 27% | 1024.4 hPa | 0 mm | - | - | - |
| 1777472990 | 13.33° C | 28% | 1024.4 hPa | 0 mm | - | - | - |
| 1777472690 | 12.78° C | 28% | 1024.4 hPa | 0 mm | - | - | - |
| 1777472390 | 11.67° C | 28% | 1024.6 hPa | 0 mm | - | - | - |
| 1777472089 | 11.67° C | 28% | 1024.4 hPa | 0 mm | - | - | - |
| 1777471789 | 11.67° C | 28% | 1024.3 hPa | 0 mm | - | - | - |
| 1777471489 | 13.33° C | 27% | 1024.3 hPa | 0 mm | - | - | - |
| 1777471189 | 13.33° C | 27% | 1024.2 hPa | 0 mm | - | - | - |
| 1777470888 | 12.78° C | 28% | 1024.2 hPa | 0 mm | - | - | - |
* Rain latest hour (hover to see other rain measurements)
** Current wind speed in m/s (hover to see current wind gust speed)